Regional Weather Roundup
Issued by NWS Huntsville, AL

Home | Current Version | Previous Version | Text Only | Print | Product List | Glossary On
Versions: 1 2 3 4 5 6 7 8 9 10 11 12 13 14 15 16 17 18 19 20 21 22 23 24 25 26 27 28 29 30 31 32 33 34 35 36 37 38 39 40 41 42 43 44 45 46 47 48 49 50
000
ASUS44 KHUN 031510
RWRHUN

WEATHER ROUNDUP FOR THE TENNESSEE VALLEY
NATIONAL WEATHER SERVICE HUNTSVILLE AL
900 AM CST TUE MAR 03 2015

ALZ001>004-031600-
NORTHWEST ALABAMA

CITY           SKY/WX    TMP DP  RH WIND       PRES   REMARKS
COURTLAND HCN    N/A     52 N/A N/A CALM        N/A
RUSSELLVILLE     N/A     55 N/A N/A MISG        N/A
SHOALS AIRPORT CLOUDY    54  50  87 E3        30.14F FOG
SHOALS TVA RES   N/A     50 N/A N/A MISG        N/A
$$

ALZ005>007-016-031600-
NORTH CENTRAL ALABAMA

CITY           SKY/WX    TMP DP  RH WIND       PRES   REMARKS
CULLMAN AG STN   N/A     52 N/A N/A CALM        N/A
DECATUR AP     CLOUDY    53  53 100 SE6       30.16R FOG
HUNTSVILLE AP  CLOUDY    53  50  89 E7        30.15F FOG
HUN NWS/UAH      N/A     51  49  91 SE6         N/A
MERIDIANVILLE  CLOUDY    50  45  81 SE8       30.16F FOG
REDSTONE ARSN  CLOUDY    51  50  96 SE9       30.15S
VINEMONT AP    FOG       52  52  99 S6        30.18F VSB 1/4
$$

ALZ008>010-031600-
NORTHEAST ALABAMA

CITY           SKY/WX    TMP DP  RH WIND       PRES   REMARKS
ALBERTVILLE    CLOUDY    50  50 100 SE3       30.18S FOG
FORT PAYNE     CLOUDY    50  45  81 SE3       30.20S
SCOTTSBORO AP  CLOUDY    46  46 100 CALM      30.21S FOG
SCOTTSBORO HCN   N/A     46 N/A N/A MISG        N/A
VALLEY HEAD      N/A     50 N/A N/A MISG        N/A
$$

TNZ076-096-097-031600-
SOUTHEASTERN MIDDLE TENNESSEE

CITY           SKY/WX    TMP DP  RH WIND       PRES   REMARKS
TULLAHOMA      CLOUDY    48  48 100 S5        30.15F
WINCHESTER     CLOUDY    50  48  93 SE9       30.17S
$$

...SURROUNDING SITES...

CITY           SKY/WX    TMP DP  RH WIND       PRES   REMARKS
ATLANTA        LGT RAIN  53  51  93 VRB7      30.24S VSB 1/2
ANNISTON       CLOUDY    53  51  93 NE7       30.21S FOG
BIRMINGHAM     CLOUDY    57  56  96 CALM      30.20S FOG
CHATTANOOGA    DRIZZLE   46  44  93 S6        30.22F FOG
CORINTH        FOG       52  50  93 S8        30.11R VSB 3/4
DALTON         DRIZZLE   46  46 100 CALM      30.23S
GADSDEN        CLOUDY    48  45  87 NE7       30.20S VSB 3/4
GOLDEN TRNGL   FOG       52  52 100 S7        30.13S VSB 1/2
HALEYVILLE     FOG       51  51 100 S7        30.17S VSB<1/4
JACKSON TN     CLOUDY    51  48  89 S9G20     30.07S
LEWISBURG      CLOUDY    51  50  97 S8        30.12F
MEMPHIS        DRZL/FOG  50  49  96 S10       30.07S VSB 1/2
MURFREESBORO   CLOUDY    52  50  93 S8        30.12F
NASHVILLE      CLOUDY    51  48  89 S8        30.10F
OXFORD MS      FOG       48  48 100 S7        30.12R VSB 1/2
ROME           CLOUDY    48  47  96 CALM      30.22S FOG
SAVANNAH       CLOUDY    52  52 100 S10       30.10S
TUPELO         FOG       50  49  96 S9        30.12F VSB 1/4
TUSCALOOSA     LGT RAIN  55  54  96 CALM      30.17R VSB 1/2
$$

...GULF COAST WEATHER...

CITY           SKY/WX    TMP DP  RH WIND       PRES   REMARKS
GULFPORT       CLOUDY    65  64  97 SE10      30.16S
PASCAGOULA     CLOUDY    65  64  97 SE5       30.18R
MOBILE         CLOUDY    61  61 100 SE7       30.20R FOG
GULF SHORES    CLOUDY    63  63  99 S5        30.20R FOG
PENSACOLA      FOG       64  64 100 S6        30.20R VSB 1/2
DESTIN         CLOUDY    62  62 100 SE5       30.20R FOG
PANAMA CITY    MOSUNNY   64  64 100 E7        30.20S
APPALACHICOLA  CLOUDY    63  60  90 SE6       30.22S
$$




USA.gov is the U.S. government's official web portal to all federal, state and local government web resources and services.